星链-34657 (STARLINK-34657)

导读

STARLINK-34657是美国SpaceX公司星链星座中的一颗低轨通信卫星,于2025年7月8日发射入轨,属于星链全球组网的组成部分。星链星座旨在为全球提供高速低延迟宽带互联网服务,尤其覆盖基础设施匮乏的偏远地区,该卫星采用平板设计、霍尔推进技术,具备自主避撞能力,服役结束后会主动离轨在大气层焚毁,减少空间碎片影响。

Basic Information
目录编号:
64775
目录名称:
STARLINK-34657
国际标识:
2025-147W
轨道中心:
EARTH
卫星名称:
星链-34657
卫星全名:
星链-34657 (STARLINK-34657)
卫星状态:
在轨 (已飞行423 天)
发射日期:
2025-07-08 UTC
国别 :
美国 (US)
星等 :
--
Orbit Information
数据来源 国际轨道数据
星历时间: 2026-09-04T00:16:50+0800
10小时前
查看轨道信息
半长轴: 6840.852km
偏心率: 0.0001024
轨道倾角: 53.159°
近地点辐角 68.428°
升交点赤经 132.397°
平近点角 291.683°
近地点: 462.014km
远地点: 463.416km
周期: 93.848分钟
每日圈数: 15.343962
Detailed Information
固有亮度:
5
最大亮度:
2.5
卫星平台:
Starlink V1.0
覆盖范围:
全球
运营商:
太空探索技术公司
运营商所在国:
美国
制造商(研发单位):
太空探索技术公司
制造商所在国:
美国
使用方式:
暂无
Satellite Introduction
Starlink 计划是 SpaceX 推出的全球卫星互联网项目,通过发射低轨道卫星,为全球尤其是偏远地区提供高速、低延迟的互联网服务。自 2019 年起,Starlink 已部署数千颗卫星,旨在缩小全球数字鸿沟,推动互联网普及。该项目还为军事、航空等行业提供通信支持,带来广泛经济效益。
2D Orbit Map
3D Orbit Map
Orbit Altitude Analysis Chart
Orbit Inclination Analysis Chart
Orbit Comprehensive Analysis Chart
View Comprehensive Chart
Conjunction Data List
Event ID Objects TCA Miss Dist (km) Collision Risk Probability Collision Risk Index (CRI) Action
CDM_260904-050605-083006-477521
2026-09-04T
05:06:55+0000
0.840 km
远距离
2.17681E-5 中风险 0.62
CDM_260903-233805-083006-477521
2026-09-03T
23:38:38+0000
0.931 km
远距离
1.536254E-5 中风险 0.59
CDM_260905-045506-009206-477521
2026-09-05T
04:55:37+0000
1.198 km
极远距离
1.244977E-5 中风险 0.57
CDM_260905-052206-369906-477521
2026-09-05T
05:22:40+0000
0.919 km
远距离
9.669236E-6 低风险 0.55
CDM_260905-062906-009206-477521
2026-09-05T
06:29:24+0000
1.314 km
极远距离
9.036788E-6 低风险 0.54
CDM_260905-013605-113606-477521
2026-09-05T
01:36:15+0000
1.260 km
极远距离
7.545704E-6 低风险 0.53
CDM_260905-034806-369906-477521
2026-09-05T
03:48:53+0000
1.072 km
极远距离
5.714515E-6 低风险 0.5
CDM_260904-164706-477506-591821
2026-09-04T
16:47:35+0000
1.437 km
极远距离
4.799946E-6 低风险 0.49
CDM_260905-055606-477506-666721
2026-09-05T
05:56:36+0000
1.731 km
极远距离
4.239348E-6 低风险 0.48
CDM_260905-012306-477506-591821
2026-09-05T
01:23:27+0000
1.561 km
极远距离
3.694534E-6 低风险 0.46